Location: Albany
(35.0000°S, 118.0000°E)
Time: 12:45:18
(UTC-04:00)

Cosmos 1626 - Visible Passes

Search period start: 25 October 2014 00:00
Search period end: 03 November 2014 23:00
Orbit: 515 x 519 km, 82.5° (Epoch: 25 October)

Date Brightness Start Highest point End Pass type
(mag) Time Alt. Az. Time Alt. Az. Time Alt. Az.
25 Oct 5.4 07:59:24 10° WNW 08:01:49 16° WSW 08:04:16 10° SW visible
26 Oct 5.2 07:44:27 10° WNW 07:47:15 19° WSW 07:50:06 10° SSW visible
27 Oct 5.0 07:29:34 10° NW 07:32:41 23° WSW 07:35:49 10° SSW visible
28 Oct 4.6 07:14:45 10° NW 07:18:05 28° WSW 07:21:29 10° SSW visible
29 Oct 4.3 06:59:59 10° NW 07:03:30 34° W 07:07:04 10° SSW visible
31 Oct 5.6 16:30:23 10° SE 16:32:44 15° ESE 16:35:04 10° ENE visible
01 Nov 5.8 16:16:18 10° SE 16:18:03 13° ESE 16:19:48 10° E visible
02 Nov 6.2 15:02:46 10° ESE 15:03:21 10° ESE 15:03:57 10° E visible
